Location: Unspecified
(0.0000°N, 0.0000°E)
Time: 16:09:18
(UTC+00:00)

Vanguard 2 - Pass Details

Date: 20 December 2018
Orbit: 553 x 2939 km, 32.9° (Epoch: 21 March)

Event Time Altitude Azimuth Distance (km) Brightness Sun altitude
Rises 10:03:47 0° 221° (SW) 6,487 12.3 53.8°
Reaches altitude 10° 10:11:19 10° 201° (SSW) 5,047 12.0 55.2°
Maximum altitude 10:18:30 15° 170° (S) 4,052 11.9 56.4°
Drops below altitude 10° 10:24:18 10° 137° (SE) 3,950 11.9 57.4°
Sets 10:28:52 0° 115° (ESE) 4,459 11.9 58.2°
